TimeEDT,TemperatureF,Dew PointF,Humidity,Sea Level PressureIn,VisibilityMPH,Wind Direction,Wind SpeedMPH,Gust SpeedMPH,PrecipitationIn,Events,Conditions,WindDirDegrees,DateUTC
12:15 AM,64.4,59.0,83,29.91,10.0,Calm,Calm,-,N/A,,Mostly Cloudy,0,2013-09-08 04:15:00
12:35 AM,66.2,57.2,73,29.91,10.0,Calm,Calm,-,N/A,,Mostly Cloudy,0,2013-09-08 04:35:00
12:55 AM,64.4,57.2,77,29.91,10.0,Calm,Calm,-,N/A,,Overcast,0,2013-09-08 04:55:00
1:15 AM,64.4,57.2,77,29.90,10.0,Calm,Calm,-,N/A,,Overcast,0,2013-09-08 05:15:00
1:35 AM,64.4,59.0,83,29.90,10.0,Calm,Calm,-,N/A,,Overcast,0,2013-09-08 05:35:00
1:55 AM,64.4,59.0,83,29.90,10.0,Calm,Calm,-,N/A,,Overcast,0,2013-09-08 05:55:00
2:15 AM,64.4,59.0,83,29.89,10.0,Calm,Calm,-,N/A,,Overcast,0,2013-09-08 06:15:00
2:35 AM,64.4,57.2,77,29.89,10.0,Calm,Calm,-,N/A,,Overcast,0,2013-09-08 06:35:00
2:55 AM,64.4,57.2,77,29.89,10.0,Calm,Calm,-,N/A,,Overcast,0,2013-09-08 06:55:00
3:15 AM,64.4,59.0,83,29.88,10.0,Calm,Calm,-,N/A,,Overcast,0,2013-09-08 07:15:00
3:35 AM,64.4,59.0,83,29.87,10.0,SSE,3.5,-,N/A,,Overcast,160,2013-09-08 07:35:00
3:55 AM,66.2,57.2,73,29.86,10.0,Calm,Calm,-,N/A,,Overcast,0,2013-09-08 07:55:00
4:15 AM,66.2,57.2,73,29.85,10.0,Calm,Calm,-,N/A,,Overcast,0,2013-09-08 08:15:00
4:35 AM,64.4,57.2,77,29.86,10.0,Calm,Calm,-,N/A,,Scattered Clouds,0,2013-09-08 08:35:00
4:55 AM,62.6,57.2,82,29.86,10.0,Calm,Calm,-,N/A,,Scattered Clouds,0,2013-09-08 08:55:00
5:15 AM,60.8,57.2,88,29.86,10.0,Calm,Calm,-,N/A,,Mostly Cloudy,0,2013-09-08 09:15:00
5:35 AM,60.8,57.2,88,29.85,10.0,Calm,Calm,-,N/A,,Scattered Clouds,0,2013-09-08 09:35:00
5:55 AM,60.8,57.2,88,29.85,10.0,Calm,Calm,-,N/A,,Mostly Cloudy,0,2013-09-08 09:55:00
6:15 AM,60.8,57.2,88,29.84,10.0,Calm,Calm,-,N/A,,Mostly Cloudy,0,2013-09-08 10:15:00
6:35 AM,60.8,57.2,88,29.84,10.0,Calm,Calm,-,N/A,,Scattered Clouds,0,2013-09-08 10:35:00
6:45 AM,60.8,57.2,88,29.85,10.0,SW,3.5,-,N/A,,Scattered Clouds,220,2013-09-08 10:45:00
7:45 AM,62.6,59.0,88,29.87,10.0,Calm,Calm,-,N/A,,Scattered Clouds,0,2013-09-08 11:45:00
8:45 AM,69.8,59.0,68,29.85,10.0,West,4.6,-,N/A,,Clear,260,2013-09-08 12:45:00
9:45 AM,73.4,60.8,65,29.86,10.0,WNW,9.2,-,N/A,,Clear,300,2013-09-08 13:45:00
10:45 AM,75.2,62.6,65,29.85,10.0,NW,5.8,-,N/A,,Scattered Clouds,320,2013-09-08 14:45:00
11:45 AM,77.0,64.4,65,29.85,10.0,NNW,9.2,15.0,N/A,,Scattered Clouds,330,2013-09-08 15:45:00
12:45 PM,75.2,62.6,65,29.86,10.0,North,10.4,16.1,N/A,,Mostly Cloudy,350,2013-09-08 16:45:00
1:45 PM,77.0,60.8,57,29.86,10.0,North,8.1,20.7,N/A,,Scattered Clouds,10,2013-09-08 17:45:00
2:45 PM,77.0,59.0,54,29.87,10.0,North,9.2,20.7,N/A,,Scattered Clouds,360,2013-09-08 18:45:00
3:45 PM,78.8,55.4,44,29.88,10.0,North,12.7,23.0,N/A,,Mostly Cloudy,350,2013-09-08 19:45:00
4:45 PM,75.2,51.8,44,29.90,10.0,NNE,13.8,19.6,N/A,,Scattered Clouds,20,2013-09-08 20:45:00
5:45 PM,73.4,46.4,38,29.93,15.0,NNW,8.1,13.8,N/A,,Scattered Clouds,340,2013-09-08 21:45:00
6:45 PM,71.6,46.4,41,29.95,10.0,North,5.8,-,N/A,,Partly Cloudy,350,2013-09-08 22:45:00
7:45 PM,66.2,46.4,49,29.99,10.0,NNW,5.8,-,N/A,,Clear,340,2013-09-08 23:45:00
8:45 PM,64.4,46.4,52,30.03,10.0,NNE,5.8,-,N/A,,Clear,20,2013-09-09 00:45:00
9:45 PM,60.8,46.4,59,30.06,10.0,NNE,4.6,-,N/A,,Clear,20,2013-09-09 01:45:00
10:55 PM,57.2,46.4,67,30.08,10.0,Calm,Calm,-,N/A,,Clear,0,2013-09-09 02:55:00
11:15 PM,59.0,46.4,63,30.08,10.0,Calm,Calm,-,N/A,,Clear,0,2013-09-09 03:15:00
11:35 PM,60.8,44.6,55,30.09,10.0,Calm,Calm,-,N/A,,Clear,0,2013-09-09 03:35:00
11:55 PM,59.0,44.6,59,30.10,10.0,North,3.5,-,N/A,,Clear,360,2013-09-09 03:55:00